Location: Gilevgi
(36.8751°N, 30.0581°E)
Time: 04:31:39
(UTC+00:00)

Cosmos 1953 Rocket - Pass Details

Date: 11 December 2025
Orbit: 599 x 627 km, 82.5° (Epoch: 13 January)

Event Time Altitude Azimuth Distance (km) Brightness Sun altitude
Rises 15:36:53 0° 3° (N) 2,913 6.8 -10.5°
Reaches altitude 10° 15:39:18 10° 12° (NNE) 2,004 5.9 -11.0°
Maximum altitude 15:43:21 34° 78° (ENE) 1,032 4.2 -11.7°
Drops below altitude 10° 15:47:23 10° 144° (SE) 1,995 6.0 -12.5°
Sets 15:49:46 0° 153° (SSE) 2,896 6.9 -12.9°
